Regional Weather Roundup
Issued by NWS

Home | Current Version | Previous Version | Text Only | Print | Product List | Glossary Off
Versions: 1 2 3 4 5 6 7 8 9 10 11 12 13 14 15 16 17 18 19 20 21 22 23 24 25 26 27 28 29 30 31 32 33 34 35 36 37 38 39 40 41 42 43 44 45 46 47 48 49 50

000
ASUS45 KCYS 301710
RWRWY

WYOMING REGIONAL WEATHER ROUNDUP
NATIONAL WEATHER SERVICE CHEYENNE WY
1100 AM MDT TUE JUN 30 2015

NOTE:  "FAIR" INDICATES FEW OR NO CLOUDS BELOW 12,000 FEET
WITH NO SIGNIFICANT WEATHER AND/OR OBSTRUCTIONS TO VISIBILITY.

WYZ001-301800-
YELLOWSTONE NATIONAL PARK

CITY           SKY/WX    TMP DP  RH WIND       PRES   REMARKS
LK YELLOWSTONE   N/A     67  50  54 VRB3      30.38F
W YELLOWSTONE  NOT AVBL

$$
WYZ002>013-054>058-071-098>099-301800-
NORTHERN WYOMING

CITY           SKY/WX    TMP DP  RH WIND       PRES   REMARKS
JACKSON        FAIR      72  54  53 NW3       30.26F
CODY           FAIR      79  55  44 N5        30.12F
GREYBULL       FAIR      86  52  30 N8        30.02F
WORLAND        FAIR      85  51  31 N6        30.04S
SHERIDAN       FAIR      75  61  61 NW3       30.04S
BUFFALO        FAIR      72  56  57 N6        30.11R
GILLETTE       FAIR      82  59  45 NW12G18   30.03S
HULETT         FAIR      79  59  50 SW8       30.02S
NEWCASTLE      FAIR      77  59  53 CALM      30.03S

$$
WYZ014>020-022>026-101>103-301800-
CENTRAL WYOMING

CITY           SKY/WX    TMP DP  RH WIND       PRES   REMARKS
BIG PINEY      FAIR      80  45  28 SW6       30.29F
PINEDALE       FAIR      79  45  29 N6        30.30F
DUBOIS         FAIR      79  43  27 NW14G22   30.27F
LANDER         FAIR      81  51  35 N7        30.12F
RIVERTON       FAIR      82  51  34 CALM      30.14F
CASPER         FAIR      82  46  28 SW14      30.11F
DOUGLAS        FAIR      84  54  35 CALM      30.07F

$$
WYZ021-027>030-104>119-301800-
SOUTHERN WYOMING

CITY           SKY/WX    TMP DP  RH WIND       PRES   REMARKS
EVANSTON       FAIR      79  46  31 SW6       30.31F
KEMMERER       FAIR      81  43  26 SW7       30.33S
FORT BRIDGER   SUNNY     82  45  26 W6        30.32F
ROCK SPRINGS   FAIR      80  43  26 SW10      30.26F
DIXON          FAIR      82  42  24 SW5       30.27F
RAWLINS        FAIR      83  45  26 SW7       30.25F
SARATOGA       FAIR      81  36  19 CALM      30.27F
LARAMIE        FAIR      81  41  24 S7        30.28F
CHEYENNE       FAIR      85  44  23 S3        30.19S
TORRINGTON     FAIR      84  55  36 VRB3      30.02F
PINE BLUFFS    FAIR      84  46  26 CALM      30.12S

$$



USA.gov is the U.S. government's official web portal to all federal, state and local government web resources and services.